When you browse on this site, cookies collect data to enhance your experience and personalize the content and advertising you see.
Visit our Privacy Policy to learn more. By continuing to use the site, you agree to this use of cookies and data.
  • In Latvia
  • List of Countries
  • For 7 days
  • Water Temperature
  • Satellite Maps
  • Weather Map
  • Weather Widgets
  • user-avatar
    Login

    Hourly Weather Neuquén

    Today, 21 July, Sunday

    Time Temperature Precipitation Wind Pressure Humidity
    00:00 +9°C° 0 mm 8 mps 721 mmHg 57%
    01:00 +9°C° 0 mm 5 mps 721 mmHg 60%
    02:00 +8°C° 0 mm 6 mps 722 mmHg 56%
    03:00 +8°C° 0 mm 7 mps 722 mmHg 52%
    04:00 +6°C° 0 mm 8 mps 723 mmHg 48%
    05:00 +6°C° 0 mm 7 mps 724 mmHg 46%
    06:00 +5°C° 0 mm 6 mps 724 mmHg 45%
    07:00 +5°C° 0 mm 6 mps 725 mmHg 43%
    08:00 +6°C° 0 mm 9 mps 725 mmHg 39%
    09:00 +7°C° 0 mm 12 mps 726 mmHg 35%
    10:00 +9°C° 0 mm 15 mps 726 mmHg 31%
    11:00 +9°C° 0 mm 15 mps 726 mmHg 28%
    12:00 +10°C° 0 mm 16 mps 726 mmHg 26%
    13:00 +11°C° 0 mm 17 mps 726 mmHg 23%
    14:00 +10°C° 0 mm 15 mps 726 mmHg 25%
    15:00 +9°C° 0 mm 13 mps 727 mmHg 27%
    16:00 +9°C° 0 mm 11 mps 728 mmHg 28%
    17:00 +8°C° 0 mm 10 mps 728 mmHg 33%
    18:00 +7°C° 0 mm 8 mps 729 mmHg 37%
    19:00 +6°C° 0 mm 7 mps 730 mmHg 42%
    20:00 +6°C° 0 mm 7 mps 731 mmHg 45%
    21:00 +5°C° 0 mm 6 mps 731 mmHg 48%
    22:00 +5°C° 0 mm 6 mps 732 mmHg 51%
    23:00 +5°C° 0 mm 5 mps 733 mmHg 52%

    Tomorrow, 22 July, Monday

    Time Temperature Precipitation Wind Pressure Humidity
    00:00 +5°C° 0 mm 5 mps 733 mmHg 53%
    01:00 +5°C° 0 mm 4 mps 734 mmHg 54%
    02:00 +4°C° 0 mm 4 mps 734 mmHg 55%
    03:00 +4°C° 0 mm 4 mps 735 mmHg 56%
    04:00 +4°C° 0 mm 4 mps 735 mmHg 57%
    05:00 +3°C° 0 mm 4 mps 736 mmHg 57%
    06:00 +2°C° 0 mm 5 mps 736 mmHg 57%
    07:00 +2°C° 0 mm 5 mps 737 mmHg 57%
    08:00 +3°C° 0 mm 6 mps 737 mmHg 50%
    09:00 +5°C° 0 mm 7 mps 737 mmHg 43%
    10:00 +7°C° 0 mm 9 mps 738 mmHg 36%
    11:00 +7°C° 0 mm 8 mps 738 mmHg 34%
    12:00 +7°C° 0 mm 8 mps 737 mmHg 32%
    13:00 +9°C° 0 mm 8 mps 737 mmHg 29%
    14:00 +8°C° 0 mm 7 mps 738 mmHg 30%
    15:00 +8°C° 0 mm 6 mps 738 mmHg 31%
    16:00 +8°C° 0 mm 6 mps 738 mmHg 31%
    17:00 +7°C° 0 mm 5 mps 738 mmHg 35%
    18:00 +6°C° 0 mm 4 mps 738 mmHg 40%
    19:00 +5°C° 0 mm 4 mps 739 mmHg 44%
    20:00 +5°C° 0 mm 4 mps 739 mmHg 47%
    21:00 +4°C° 0 mm 4 mps 739 mmHg 50%
    22:00 +4°C° 0 mm 4 mps 740 mmHg 54%
    23:00 +3°C° 0 mm 4 mps 740 mmHg 56%

    Day after tomorrow, 23 July, Tuesday

    Time Temperature Precipitation Wind Pressure Humidity
    00:00 +3°C° 0 mm 3 mps 740 mmHg 57%
    01:00 +3°C° 0 mm 3 mps 740 mmHg 59%
    02:00 +2°C° 0 mm 3 mps 740 mmHg 60%
    03:00 +2°C° 0 mm 3 mps 740 mmHg 60%
    04:00 +2°C° 0 mm 3 mps 740 mmHg 61%
    05:00 +2°C° 0 mm 3 mps 740 mmHg 61%
    06:00 +1°C° 0 mm 3 mps 740 mmHg 60%
    07:00 +1°C° 0 mm 3 mps 740 mmHg 60%
    08:00 +3°C° 0 mm 3 mps 740 mmHg 54%
    09:00 +5°C° 0 mm 4 mps 741 mmHg 48%
    10:00 +6°C° 0 mm 4 mps 741 mmHg 42%
    11:00 +7°C° 0 mm 4 mps 741 mmHg 38%
    12:00 +8°C° 0 mm 4 mps 740 mmHg 34%
    13:00 +10°C° 0 mm 4 mps 740 mmHg 31%
    14:00 +10°C° 0 mm 4 mps 740 mmHg 32%
    15:00 +9°C° 0 mm 3 mps 740 mmHg 33%
    16:00 +9°C° 0 mm 3 mps 740 mmHg 35%
    17:00 +8°C° 0 mm 3 mps 741 mmHg 38%
    18:00 +7°C° 0 mm 3 mps 741 mmHg 41%
    19:00 +6°C° 0 mm 2 mps 741 mmHg 44%
    20:00 +6°C° 0 mm 2 mps 742 mmHg 46%
    21:00 +5°C° 0 mm 2 mps 742 mmHg 47%
    22:00 +6°C° 0 mm 1 mps 742 mmHg 49%
    23:00 +6°C° 0 mm 1 mps 743 mmHg 49%

    24 July, Wednesday

    Time Temperature Precipitation Wind Pressure Humidity
    00:00 +5°C° 0 mm 1 mps 743 mmHg 50%
    01:00 +5°C° 0 mm 1 mps 743 mmHg 51%
    02:00 +5°C° 0 mm 1 mps 743 mmHg 52%
    03:00 +4°C° 0 mm 1 mps 743 mmHg 53%
    04:00 +3°C° 0 mm 2 mps 743 mmHg 54%
    05:00 +4°C° 0 mm 1 mps 743 mmHg 55%
    06:00 +3°C° 0 mm 1 mps 744 mmHg 56%
    07:00 +3°C° 0 mm 1 mps 744 mmHg 58%
    08:00 +5°C° 0 mm 1 mps 744 mmHg 51%
    09:00 +6°C° 0 mm 2 mps 744 mmHg 44%
    10:00 +8°C° 0 mm 2 mps 745 mmHg 37%
    11:00 +9°C° 0 mm 2 mps 744 mmHg 33%
    12:00 +12°C° 0 mm 2 mps 743 mmHg 30%
    13:00 +12°C° 0 mm 3 mps 743 mmHg 26%
    14:00 +12°C° 0 mm 3 mps 742 mmHg 27%
    15:00 +12°C° 0 mm 3 mps 742 mmHg 28%
    16:00 +11°C° 0 mm 3 mps 741 mmHg 29%
    17:00 +11°C° 0 mm 3 mps 741 mmHg 31%
    18:00 +10°C° 0 mm 4 mps 741 mmHg 33%
    19:00 +8°C° 0 mm 4 mps 741 mmHg 35%
    20:00 +7°C° 0 mm 4 mps 741 mmHg 36%
    21:00 +7°C° 0 mm 4 mps 741 mmHg 36%
    22:00 +7°C° 0 mm 4 mps 740 mmHg 37%
    23:00 +6°C° 0 mm 4 mps 740 mmHg 38%

    25 July, Thursday

    Time Temperature Precipitation Wind Pressure Humidity
    00:00 +6°C° 0 mm 4 mps 739 mmHg 40%
    01:00 +6°C° 0 mm 4 mps 739 mmHg 41%
    02:00 +5°C° 0 mm 4 mps 738 mmHg 44%
    03:00 +5°C° 0 mm 5 mps 738 mmHg 46%
    04:00 +3°C° 0 mm 5 mps 737 mmHg 49%
    05:00 +4°C° 0 mm 4 mps 737 mmHg 50%
    06:00 +4°C° 0 mm 4 mps 737 mmHg 52%
    07:00 +3°C° 0 mm 4 mps 737 mmHg 53%
    08:00 +5°C° 0 mm 3 mps 737 mmHg 47%
    09:00 +7°C° 0 mm 3 mps 737 mmHg 42%
    10:00 +9°C° 0 mm 3 mps 737 mmHg 36%
    11:00 +10°C° 0 mm 3 mps 737 mmHg 33%
    12:00 +12°C° 0 mm 2 mps 736 mmHg 30%
    13:00 +13°C° 0 mm 2 mps 736 mmHg 26%
    14:00 +13°C° 0 mm 2 mps 736 mmHg 27%
    15:00 +13°C° 0 mm 2 mps 736 mmHg 28%
    16:00 +13°C° 0 mm 1 mps 736 mmHg 29%
    17:00 +12°C° 0 mm 1 mps 736 mmHg 32%
    18:00 +9°C° 0 mm 2 mps 737 mmHg 34%
    19:00 +8°C° 0 mm 2 mps 737 mmHg 37%
    20:00 +8°C° 0 mm 2 mps 738 mmHg 38%
    21:00 +8°C° 0 mm 2 mps 738 mmHg 39%
    22:00 +7°C° 0 mm 2 mps 738 mmHg 41%
    23:00 +7°C° 0 mm 2 mps 739 mmHg 44%

    26 July, Friday

    Time Temperature Precipitation Wind Pressure Humidity
    00:00 +7°C° 0 mm 2 mps 739 mmHg 47%
    01:00 +7°C° 0 mm 2 mps 739 mmHg 50%
    02:00 +6°C° 0 mm 2 mps 739 mmHg 53%
    03:00 +6°C° 0 mm 2 mps 739 mmHg 55%
    04:00 +7°C° 0 mm 1 mps 739 mmHg 57%
    05:00 +7°C° 0 mm 1 mps 739 mmHg 59%
    06:00 +7°C° 0 mm 1 mps 739 mmHg 60%
    07:00 +6°C° 0 mm 1 mps 739 mmHg 61%
    08:00 +8°C° 0 mm 1 mps 739 mmHg 56%
    09:00 +10°C° 0 mm 1 mps 740 mmHg 51%
    10:00 +11°C° 0 mm 1 mps 740 mmHg 46%
    11:00 +12°C° 0 mm 1 mps 740 mmHg 45%
    12:00 +12°C° 0 mm 1 mps 739 mmHg 44%
    13:00 +13°C° 0 mm 1 mps 739 mmHg 43%
    14:00 +13°C° 0 mm 1 mps 739 mmHg 45%
    15:00 +12°C° 0 mm 1 mps 739 mmHg 47%
    16:00 +12°C° 0 mm 1 mps 739 mmHg 49%
    17:00 +12°C° 0 mm 1 mps 739 mmHg 51%
    18:00 +11°C° 0 mm 1 mps 739 mmHg 54%
    19:00 +10°C° 0 mm 1 mps 740 mmHg 57%
    20:00 +9°C° 0 mm 1 mps 740 mmHg 58%
    21:00 +9°C° 0 mm 1 mps 740 mmHg 60%
    22:00 +8°C° 0 mm 1 mps 740 mmHg 61%
    23:00 +7°C° 0 mm 2 mps 740 mmHg 62%
    Show more